Location: Izdebno
(52.6670°N, 16.2170°E)
Time: 04:34:19
(UTC+02:00)

Transit 4A - Pass Details

Date: 27 February 2024
Orbit: 871 x 972 km, 66.8° (Epoch: 22 April)

Event Time Altitude Azimuth Distance (km) Brightness Sun altitude
Rises 07:03:34 0° 315° (NW) 3,531 10.4 1.5°
Reaches altitude 10° 07:06:26 10° 326° (NW) 2,573 9.8 1.9°
Maximum altitude 07:11:37 30° 27° (NNE) 1,532 9.2 2.7°
Drops below altitude 10° 07:16:43 10° 88° (E) 2,529 11.7 3.4°
Sets 07:19:30 0° 99° (E) 3,460 13.1 3.8°
